Location: Staunton
(38.1490°N, 79.0720°W)
Time: 17:11:26
(UTC-04:00)

N. Korean satellite - Pass Details

Date: 18 September 2021
Orbit: 450 x 495 km, 97.3° (Epoch: 25 October)

Event Time Altitude Azimuth Distance (km) Brightness Sun altitude
Rises 05:58:15 0° 23° (NNE) 2,503 10.7 -13.0°
Reaches altitude 10° 06:00:29 10° 35° (NE) 1,631 9.9 -12.6°
Maximum altitude 06:03:34 29° 97° (E) 897 8.7 -12.0°
Drops below altitude 10° 06:06:41 10° 159° (SSE) 1,642 9.4 -11.4°
Sets 06:08:55 0° 171° (S) 2,525 10.2 -11.0°
